Вернуться в каталог

SL-18 DEB

АктивенLEO
NORAD 22567·DEBRIS·🇷🇺 Russia

Запущен Mar 25, 1993 с Plesetsk Cosmodrome

Loading…

Ближайшие Пролёты (ближайшие 24 часа)

TLE

СвежийSource: Space-Track

Эпоха: Sep 14, 2026, 02:33 UTC

1 22567U 93014C   26257.10679234  .00000884  00000-0  22703-3 0  9990
2 22567  75.7493 308.7425 0146214 302.8381  76.5351 14.44926342746835

Отслеживайте SL-18 DEB в реальном времени с AllMySat

Download on the App Store